Miscellaneous Local Product
Issued by NWS Hastings, NE

Home | Current Version | Previous Version | Text Only | Print | Product List | Glossary Off
Versions: 1 2 3 4 5 6 7 8 9 10 11 12 13 14 15 16 17 18 19 20 21 22 23 24 25 26 27 28 29 30 31 32 33 34 35 36 37 38 39 40 41 42 43 44 45 46 47 48 49 50

000
AXUS43 KGID 281302
MISGRI

GID CWA HOURLY WEATHER ROUNDUP
NATIONAL WEATHER SERVICE HASTINGS NE
800 AM CDT TUE JUL 28 2015

NOTE: "FAIR" INDICATES FEW OR NO CLOUDS BELOW 12,000 FEET WITH NO
SIGNIFICANT WEATHER AND/OR OBSTRUCTIONS TO VISIBILITY.

...SOUTH CENTRAL NEBRASKA...

CITY           SKY/WX    TMP DP  RH WIND       PRES   REMARKS
GRAND ISLAND   MOSUNNY   76  72  87 S5        29.80R
HASTINGS       MOSUNNY   79  70  74 S3        29.81R
KEARNEY        MOSUNNY   79  70  73 CALM      29.81R
ORD            MOSUNNY   73  64  73 N14       29.83R
YORK           PTSUNNY   73  72  94 CALM      29.80R
AURORA         MOSUNNY   77  73  88 S3        29.80R
LEXINGTON      PTSUNNY   74  70  87 N24G32    29.84R
HOLDREGE       SUNNY     76  68  75 S6        29.80R
HEBRON         SUNNY     78  65  64 SW10G16   29.79R

...NEBRASKA PANHANDLE...

CITY           SKY/WX    TMP DP  RH WIND       PRES   REMARKS
CHADRON        SUNNY     57  47  69 W10       30.04R
ALLIANCE       SUNNY     54  47  77 W6        30.06R
SCOTTSBLUFF    SUNNY     56  50  80 NW3       30.07R
SIDNEY         SUNNY     57  48  72 N10       30.08R

...WESTERN AND NORTH CENTRAL NEBRASKA...

CITY           SKY/WX    TMP DP  RH WIND       PRES   REMARKS
VALENTINE      SUNNY     62  50  64 NW12      29.93R
AINSWORTH      SUNNY     64  52  66 NW13G18   29.92R
ONEILL         PTSUNNY   67  65  91 NW21      29.88R
BROKEN BOW     MOSUNNY   69  57  65 N15G28    29.88R
IMPERIAL       SUNNY     66  52  60 NW18G28   29.97R
NORTH PLATTE   SUNNY     67  48  50 N17G29    29.92R
MCCOOK         SUNNY     73  60  63 N22G30    29.87R

...EASTERN NEBRASKA...

CITY           SKY/WX    TMP DP  RH WIND       PRES   REMARKS
NORFOLK        MOSUNNY   72  70  93 SE12      29.79R
SO SIOUX CITY  CLOUDY    72  66  81 SE15      29.83R
TEKAMAH        TSTM      71  69  93 E15       29.87F
COLUMBUS       MOSUNNY   73  68  83 SE5       29.79F
ALBION         SUNNY     73  68  83 SE7       29.79R
OMAHA EPPLEY   TSTM      77  73  87 NE12      29.88R
OFFUTT AFB     DRIZZLE   77  73  87 N8        29.87R
MILLARD        LGT RAIN  77  74  88 N3        29.86R
LINCOLN        MOSUNNY   78  72  81 N7        29.82R
NEBRASKA CITY  MOSUNNY   76  74  95 S8        29.82R
BEATRICE       MOSUNNY   80  70  71 S10       29.78R
FALLS CITY     SUNNY     80  74  81 S9        29.84R

...NORTHERN KANSAS...

CITY           SKY/WX    TMP DP  RH WIND       PRES   REMARKS
GOODLAND       SUNNY     68  49  50 N21G31    29.97R
HILL CITY      SUNNY     79  68  69 SW14G20   29.81R
NORTON         SUNNY     75  63  64 SW9       29.81R
PHILLIPSBURG   SUNNY     82  68  61 SW10      29.80R
SMITH CENTER   SUNNY     79  66  65 SW7       29.81R
HAYS           SUNNY     81  63  54 SW18      29.82R
RUSSELL        SUNNY     79  65  62 S17       29.81R
CONCORDIA      SUNNY     79  67  66 S18G26    29.80R
SALINA         SUNNY     81  68  64 S15G22    29.82R
TOPEKA         SUNNY     82  73  74 S7        29.86R



USA.gov is the U.S. government's official web portal to all federal, state and local government web resources and services.